OBJECT D, 44882

Orbit data source: Space-Track

You're viewing an Uncataloged Satellite

Recently launched and/or uncataloged satellites may have evolving metadata. Metadata may include but not limited to: Owner, Maufacturer, Bus, Motor, and Mission.

OBJECT D, 44882 is a satellite in SSO that was launched on Fri, 20 Dec 2019 UTC via a CHANG ZHENG 4B launch vehicle from the Taiyaun Space Center, China (TSC). Unknown objects in Earth's orbit typically refer to objects detected orbiting the Earth but have not yet been identified or cataloged. These objects could be anything from previously untracked satellites, spent rocket stages, debris from satellite collisions, or even natural meteoroids temporarily captured by Earth's gravity.

Loading next visibility...
OBJECT D details
Identifier
44882, 2019-093D
Orbit
SSO
Last TLE update10 hours ago
Origin
Flag of TBDDEYA/NUDTC (TBD)
ManufacturerShanghai ASES
MissionOperational Commercial Communications
Bus & MotorSTARLIGHTB, Unknown motor
Mass40 kg wet, ~40 kg dry
Launch date (UTC)
2019-12-20 (5 years ago)
Launch vehicle
CHANG ZHENG 4B
Launch site
Taiyaun Space Center, China (TSC)
Object typeUnknown
Shape & HBRBox, Unknown HBR
Radar Cross Section0.195 m², Large (>1 m²)

Expand to show TLE details & history

TLE from 10 hours ago
0 OBJECT D
1 44882U 19093D   24361.47836683  .00012625  00000-0  11497-2 0  9999
2 44882  97.8332  82.8691 0012872  36.6418 323.5681 14.95239515271970
Epoch: 2024-12-26T11:28Z
Definitive object data (Epoch: 2024-12-26T11:28:50.894Z)
Latitude0.00007°
Longitude175.19985°
Altitude577.468 km
Speed7.576 km/s
True Right ascension05h 31m 28s
True Declination0° 00' 00"
Sunlit
Object was in full shadow at TLE epoch
Visualization TLE readout
Latitude32.78857°
Longitude170.5506°
Altitude576.973 km
Speed7.58 km/s
Apparent Right ascension06h 46m 02s
Apparent Declination-1° 54' 55"
Sunlit
Object is in full shadow
Visualization observer readout
Local Sidereal Time20:38:47
Azimuth41.183° NE
Elevation-44.194°
Doppler factor1
Orbital elements
Apogee altitude587.602 km
Perigee altitude569.692 km
Semi-major axis6,956.784 km
Eccentricity0.0012872
Inclination97.8332°
RAAN82.8691°
Arg. of periapsis36.6418°
True anomaly323.48039°
Mean anomaly323.5681°
Eccentric anomaly323.52426°
Mean motion3.74051 °/min
BSTAR0.0011497
Orbital period96.24 mins
Loading maneuver chart data...
Loading historical data...
Loading historical data...
Loading historical data...
Loading historical data...
Loading historical data...
Loading historical data...
Loading historical data...

OBJECT D Visibility forecast

Observer location: undefined°, undefined

Span
Click to sort rows by Start time (UTC) header in descending order
Start Az.
Max El. time (UTC)
Max El. Az.
Max El.
End time (UTC)
End Az.
6 mins2024-12-27 05:16:50.132Z141.986° SSE2024-12-27 05:19:50.132Z77.203° E35.463°2024-12-27 05:22:50.132Z5.358° NNE
6 mins2024-12-27 18:34:50.132Z12.177° NNE2024-12-27 18:36:50.132Z6.545° NNE44.615°2024-12-27 18:40:50.132Z194.079° SSW
|